TimeMST,TemperatureF,Dew PointF,Humidity,Sea Level PressureIn,VisibilityMPH,Wind Direction,Wind SpeedMPH,Gust SpeedMPH,PrecipitationIn,Events,Conditions,WindDirDegrees,DateUTC
12:26 AM,26.6,24.8,93,29.85,9.0,Calm,Calm,-,N/A,,Mostly Cloudy,0,2012-11-08 07:26:00
12:32 AM,26.6,24.8,93,29.85,8.0,Calm,Calm,-,N/A,,Mostly Cloudy,0,2012-11-08 07:32:00
12:38 AM,26.6,24.8,93,29.84,8.0,Calm,Calm,-,N/A,,Scattered Clouds,0,2012-11-08 07:38:00
12:51 AM,26.1,23.0,88,29.88,7.0,Calm,Calm,-,N/A,,Partly Cloudy,0,2012-11-08 07:51:00
1:51 AM,28.0,26.1,92,29.83,4.0,Calm,Calm,-,N/A,,Overcast,0,2012-11-08 08:51:00
2:51 AM,28.9,27.0,92,29.80,6.0,Calm,Calm,-,N/A,,Overcast,0,2012-11-08 09:51:00
3:51 AM,30.0,28.0,92,29.76,10.0,Calm,Calm,-,N/A,,Mostly Cloudy,0,2012-11-08 10:51:00
4:51 AM,30.0,28.0,92,29.72,7.0,Calm,Calm,-,N/A,,Mostly Cloudy,0,2012-11-08 11:51:00
5:51 AM,28.9,28.0,96,29.70,10.0,Calm,Calm,-,N/A,,Mostly Cloudy,0,2012-11-08 12:51:00
6:51 AM,30.9,28.9,92,29.68,7.0,North,5.8,-,0.01,Snow,Light Snow,10,2012-11-08 13:51:00
7:22 AM,30.2,30.2,100,29.65,2.5,North,6.9,-,0.00,Snow,Light Snow,350,2012-11-08 14:22:00
7:28 AM,32.0,30.2,93,29.65,4.0,NNW,6.9,-,0.00,Snow,Light Snow,340,2012-11-08 14:28:00
7:38 AM,32.0,30.2,93,29.66,2.5,Variable,4.6,-,0.03,Snow-Thunderstorm,Light Thunderstorms and Snow,0,2012-11-08 14:38:00
7:48 AM,32.0,30.2,93,29.65,2.5,ENE,5.8,-,0.07,,Overcast,60,2012-11-08 14:48:00
7:51 AM,32.0,30.9,96,29.69,2.5,ENE,4.6,-,0.09,,Overcast,70,2012-11-08 14:51:00
7:58 AM,33.8,30.2,87,29.65,4.0,NE,5.8,-,0.01,,Overcast,40,2012-11-08 14:58:00
8:16 AM,33.8,30.2,87,29.64,2.0,NNE,5.8,-,0.07,Rain,Rain,30,2012-11-08 15:16:00
8:24 AM,33.8,30.2,87,29.64,3.0,NNE,5.8,-,0.09,Rain,Light Rain,20,2012-11-08 15:24:00
8:44 AM,33.8,32.0,93,29.64,2.0,ENE,3.5,-,0.12,Rain,Rain,70,2012-11-08 15:44:00
8:49 AM,33.8,32.0,93,29.64,3.0,NE,3.5,-,0.13,Rain,Rain,50,2012-11-08 15:49:00
8:51 AM,33.1,32.0,96,29.69,3.0,NNE,3.5,-,0.13,Rain,Rain,30,2012-11-08 15:51:00
9:38 AM,33.8,32.0,93,29.62,5.0,Calm,Calm,-,0.02,,Overcast,0,2012-11-08 16:38:00
9:45 AM,33.8,32.0,93,29.61,6.0,North,3.5,-,0.02,,Overcast,10,2012-11-08 16:45:00
9:51 AM,34.0,32.0,92,29.66,7.0,Calm,Calm,-,0.02,,Mostly Cloudy,0,2012-11-08 16:51:00
10:02 AM,33.8,33.8,100,29.60,8.0,North,3.5,-,N/A,,Mostly Cloudy,10,2012-11-08 17:02:00
10:19 AM,33.8,32.0,93,29.61,2.5,South,3.5,-,N/A,,Mostly Cloudy,170,2012-11-08 17:19:00
10:31 AM,33.8,32.0,93,29.60,1.0,South,4.6,-,N/A,,Mostly Cloudy,170,2012-11-08 17:31:00
10:37 AM,33.8,32.0,93,29.60,0.5,SSE,3.5,-,N/A,Fog,Fog,150,2012-11-08 17:37:00
10:47 AM,33.8,33.8,100,29.61,1.2,Calm,Calm,-,N/A,,Overcast,0,2012-11-08 17:47:00
10:51 AM,34.0,33.1,96,29.66,2.0,Calm,Calm,-,N/A,,Overcast,0,2012-11-08 17:51:00
11:00 AM,33.8,33.8,100,29.61,6.0,Calm,Calm,-,N/A,,Overcast,0,2012-11-08 18:00:00
11:51 AM,36.0,34.0,93,29.65,9.0,Calm,Calm,-,N/A,,Overcast,0,2012-11-08 18:51:00
12:26 PM,37.4,33.8,87,29.58,10.0,Calm,Calm,-,0.00,,Overcast,0,2012-11-08 19:26:00
12:51 PM,37.9,35.1,89,29.62,10.0,Calm,Calm,-,0.01,,Mostly Cloudy,0,2012-11-08 19:51:00
12:54 PM,39.2,35.6,87,29.57,10.0,Calm,Calm,-,N/A,,Mostly Cloudy,0,2012-11-08 19:54:00
1:10 PM,39.2,35.6,87,29.57,10.0,NNW,3.5,-,N/A,,Overcast,340,2012-11-08 20:10:00
1:51 PM,42.1,37.0,82,29.59,10.0,Calm,Calm,-,N/A,,Mostly Cloudy,0,2012-11-08 20:51:00
2:17 PM,42.8,37.4,81,29.55,10.0,SSW,4.6,-,N/A,,Mostly Cloudy,200,2012-11-08 21:17:00
2:51 PM,42.1,36.0,79,29.57,10.0,WNW,3.5,-,N/A,,Mostly Cloudy,300,2012-11-08 21:51:00
3:02 PM,42.8,37.4,81,29.53,10.0,NNW,4.6,-,N/A,,Overcast,330,2012-11-08 22:02:00
3:16 PM,39.2,35.6,87,29.53,10.0,WNW,8.1,-,N/A,,Overcast,290,2012-11-08 22:16:00
3:22 PM,37.4,35.6,93,29.54,10.0,WNW,6.9,-,N/A,,Overcast,290,2012-11-08 22:22:00
3:51 PM,37.9,35.1,89,29.58,10.0,West,6.9,-,N/A,,Overcast,280,2012-11-08 22:51:00
4:51 PM,37.0,33.1,86,29.60,10.0,WSW,11.5,-,N/A,,Mostly Cloudy,250,2012-11-08 23:51:00
5:51 PM,36.0,32.0,86,29.62,10.0,SE,4.6,-,0.00,,Mostly Cloudy,130,2012-11-09 00:51:00
6:51 PM,34.0,30.9,89,29.63,10.0,West,4.6,-,N/A,,Scattered Clouds,280,2012-11-09 01:51:00
7:02 PM,33.8,32.0,93,29.58,10.0,WNW,4.6,-,N/A,,Mostly Cloudy,300,2012-11-09 02:02:00
7:27 PM,33.8,30.2,87,29.58,10.0,NE,3.5,-,N/A,,Scattered Clouds,40,2012-11-09 02:27:00
7:51 PM,32.0,30.9,96,29.63,10.0,NNW,3.5,-,N/A,,Partly Cloudy,330,2012-11-09 02:51:00
8:51 PM,32.0,30.0,92,29.62,10.0,WNW,5.8,-,N/A,,Partly Cloudy,290,2012-11-09 03:51:00
9:11 PM,32.0,30.2,93,29.59,10.0,East,3.5,-,N/A,,Mostly Cloudy,80,2012-11-09 04:11:00
9:20 PM,32.0,30.2,93,29.59,10.0,North,5.8,-,N/A,,Mostly Cloudy,350,2012-11-09 04:20:00
9:51 PM,30.9,28.0,89,29.64,10.0,WNW,5.8,-,N/A,,Mostly Cloudy,300,2012-11-09 04:51:00
9:58 PM,30.2,28.4,93,29.59,10.0,WNW,4.6,-,N/A,,Mostly Cloudy,300,2012-11-09 04:58:00
10:51 PM,30.0,26.1,85,29.63,10.0,WNW,4.6,-,N/A,,Mostly Cloudy,290,2012-11-09 05:51:00
11:07 PM,30.2,26.6,86,29.58,10.0,Calm,Calm,-,N/A,,Overcast,0,2012-11-09 06:07:00
11:51 PM,28.9,27.0,92,29.64,10.0,WSW,4.6,-,N/A,,Overcast,250,2012-11-09 06:51:00